Location: Burbank
(38.7788°N, 114.0429°W)
Time: 13:42:26
(UTC+00:00)

Vanguard 2 Rocket - Pass Details

Date: 23 May 2026
Orbit: 553 x 3286 km, 32.9° (Epoch: 6 June)

Event Time Altitude Azimuth Distance (km) Brightness Sun altitude
Rises 15:24:15 0° 225° (SW) 3,668 9.7 34.2°
Reaches altitude 10° 15:26:34 10° 217° (SW) 2,978 9.3 34.6°
Maximum altitude 15:33:32 41° 149° (SSE) 2,167 9.6 36.0°
Drops below altitude 10° 15:45:14 10° 87° (E) 4,973 11.9 38.2°
Sets 15:50:22 0° 81° (E) 6,406 12.1 39.2°
